Regional Weather Roundup
Issued by NWS

Home | Current Version | Previous Version | Graphics & Text | Print | Product List | Glossary On
Versions: 1 2 3 4 5 6 7 8 9 10 11 12 13 14 15 16 17 18 19 20 21 22 23 24 25 26 27 28 29 30 31 32 33 34 35 36 37 38 39 40 41 42 43 44 45 46 47 48 49 50
180
ASUS45 KBOU 230410
RWRCO

WEATHER ROUNDUP FOR COLORADO
NATIONAL WEATHER SERVICE DENVER/BOULDER CO
900 PM MST MON JAN 22 2018

NOTE: "FAIR" INDICATES FEW OR NO CLOUDS BELOW 12000 FEET WITH NO
SIGNIFICANT WEATHER AND/OR OBSTRUCTIONS TO VISIBILITY.

COZ001>005-013-030-031-230500-
...NORTHWEST COLORADO...

CITY           SKY/WX    TMP DP  RH WIND       PRES   REMARKS
CRAIG          CLOUDY    17  10  74 CALM      30.24R
HAYDEN         MOCLDY    16   8  71 E8        30.24R WCI   5
MEEKER         CLOUDY    13   8  81 CALM      30.24R
RABBIT EARS PA LGT SNOW   7   3  85 W6        30.09R WCI  -3
STEAMBOAT SPGS CLOUDY    11   7  81 CALM      30.22R
WALDEN         CLOUDY    18   5  57 S13G22    30.13S WCI   4
$$

COZ006>008-011-230500-
...WEST CENTRAL VALLEYS...

CITY           SKY/WX    TMP DP  RH WIND       PRES   REMARKS
GRAND JUNCTION FAIR      15  10  80 NE3       30.29R
MONTROSE       CLOUDY    24  13  62 CALM      30.28F
EAGLE          CLOUDY    20  14  77 E9        30.25S WCI   9
RIFLE          CLOUDY    27  20  75 E5        30.27S WCI  22
DELTA          FAIR      26  15  63 NE7       30.28S WCI  18
NUCLA          FAIR      23  14  68 E14       30.29S WCI  11
$$

COZ017>023-064>068-230500-
...SOUTHWEST COLORADO...

CITY           SKY/WX    TMP DP  RH WIND       PRES   REMARKS
DURANGO        FAIR       8   6  92 N5        30.23S WCI   0
CORTEZ         FAIR      16  12  84 NE9       30.26R WCI   4
PAGOSA SPRINGS FAIR      10   7  91 CALM      30.22R
TELLURIDE      CLOUDY    14   6  71 SE6       30.22R WCI   5
WOLF CREEK PAS FAIR      10  -6  48 SW8       30.18S WCI  -1
$$

COZ009-010-012-014-032>034-037-058>063-230500-
...CENTRAL COLORADO...

CITY           SKY/WX    TMP DP  RH WIND       PRES   REMARKS
ASPEN          CLOUDY    16   8  71 S7        30.20S WCI   6
BUENA VISTA    FAIR      11  -4  51 CALM      30.13S
COPPER MTN     NOT AVBL
BERTHOUD PASS  LGT SNOW   0 -13  55 NW39G47   29.97R WCI -29
COTTONWOOD PAS FAIR      27 -11  18 W8G31     30.09S WCI  18
GUNNISON       FAIR       9   2  73 NE3       30.24R
KREMMLING      CLOUDY    14   9  79 CALM      30.22R
LEADVILLE      CLOUDY     8  -5  55 N12G22    30.11R WCI  -7
MONARCH PASS     N/A      5   1  85 W33       30.18S WCI -20
SALIDA         FAIR      20   6  53 SW6       30.20S WCI  13
SUNLIGHT       FAIR       5   3  92 SW10      30.18S WCI -10
WILKERSON PASS   N/A     10 -13  34 SW10G22   30.06S WCI  -3
$$

COZ069>075-230500-
...SAN LUIS VALLEY/SANGRE DE CRISTO MOUNTAINS...

CITY           SKY/WX    TMP DP  RH WIND       PRES   REMARKS
ALAMOSA        FAIR       2  -3  80 SE6       30.18R WCI  -9
DEL NORTE      FAIR      12   1  61 W8        30.19S WCI   0
LA VETA PASS   FAIR      12   1  62 SW32G39     N/A  WCI -10
SAGUACHE       FAIR       5   0  78 NE6       30.19S WCI  -6
$$

COZ035-036-038>040-230500-
...NORTHERN COLORADO FRONT RANGE...

CITY           SKY/WX    TMP DP  RH WIND       PRES   REMARKS
DENVER INTL AP MOCLDY    22   6  50 S13       30.07R WCI  10
DMNS CITY PARK NOT AVBL
AURORA         MOCLDY    27   8  44 CALM      30.07R
FRONT RANGE AP PTCLDY    25  10  54 SE5       30.08R WCI  19
ERIE MUNI ARPT FAIR      37   2  23 W20G30    30.11R
BOULDER MUN AP FAIR      36   1  23 NW9G18    30.05S
CENTENNIAL     MOCLDY    27   9  46 CALM      30.06R
BROOMFIELD     MOCLDY    34   5  29 W9G18     30.08R WCI  26
FORT COLLINS   FAIR      25  16  68 CALM      30.07R
LONGMONT       FAIR      30  16  55 NW5       30.08R WCI  25
$$

COZ041-046-047-076>085-087-088-230500-
...PIKES PEAK/PALMER DIVIDE AND SOUTHERN FOOTHILLS...

CITY           SKY/WX    TMP DP  RH WIND       PRES   REMARKS
COLO. SPRINGS  CLOUDY    31   9  39 S6        30.08R WCI  25
A. F. ACADEMY  CLOUDY    24   8  49 NE6       30.06S WCI  17
SCHRIEVER AFB  MOCLDY    30   2  30 N5        30.09R WCI  25
CHEYENNE MTN   CLOUDY    33  -3  21 S15G21    30.01F WCI  23
ELLICOTT         N/A    N/A N/A N/A E12       30.06S
FALCON         FAIR      25   2  37 S3        30.08R
FORT CARSON    FAIR      32   6  33 SW7       30.07S WCI  26
LIMON          FAIR       7   4  87 NW5       30.10R WCI  -2
MONUMENT HILL  FAIR      21   1  42 S6        30.08S WCI  14
CANON CITY     FAIR      32  14  47 NW12      30.08S WCI  23
WALSENBURG     NOT AVBL
TRINIDAD       FAIR      25   7  46 W9        30.12R WCI  15
$$

COZ042>045-048>051-090-091-230500-
...NORTHEAST COLORADO...

CITY           SKY/WX    TMP DP  RH WIND       PRES   REMARKS
GREELEY ARPT   FAIR      23  15  71 S9        30.09R WCI  13
AKRON          FAIR      18   7  62 N15       30.06S WCI   4
BURLINGTON     FAIR      17   8  67 NW10      30.09S WCI   5
WRAY           FAIR      16  10  79 SW8       30.08S WCI   5
YUMA           FAIR      18   9  68 W10       30.07R WCI   6
STERLING       FAIR      28  16  59 NW20      30.05F WCI  15
HOLYOKE        FAIR      28  14  54 NW15      30.06S WCI  17
FORT MORGAN    FAIR      25  10  54 N21G26    30.06S WCI  10
$$

COZ086-089-092>099-230500-
...SOUTHEAST COLORADO...

CITY           SKY/WX    TMP DP  RH WIND       PRES   REMARKS
PUEBLO         FAIR      28  13  53 W6        30.10R WCI  22
LA JUNTA       FAIR      29  13  51 SE5       30.13R WCI  24
LAMAR          FAIR      23  11  60 VRB5      30.11R WCI  17
SPRINGFIELD      N/A     16  11  80 W7        30.14R WCI   6
$$




USA.gov is the U.S. government's official web portal to all federal, state and local government web resources and services.